EW0413 Weather Reports


Display with metric or nautical units.
time (UTC)temp
F
wind
direction
speed
MPH
gust
MPH
rain 1hr
in
rain 24hr
in
rain mn
in
humidity
%
barometer
mb
20260906101534 69 281 0.0 2.0 0.00 0.00 0.00 95 1013.5
20260906100034 69 293 0.0 1.0 0.00 0.00 0.00 94 1013.5
20260906094530 70 55 0.0 1.0 0.00 0.00 0.00 94 1013.4
20260906093044 70 295 0.0 3.0 0.00 0.00 0.00 93 1013.3
20260906091529 70 60 0.0 3.0 0.00 0.00 0.00 93 1013.2
20260906090035 71 32 0.0 1.0 0.00 0.00 0.00 93 1013.2
20260906084532 71 96 0.0 3.0 0.00 0.00 0.00 93 1013.2
20260906083011 71 298 0.0 3.0 0.00 0.00 0.00 93 1013.3
20260906081507 71 77 0.0 2.0 0.00 0.00 0.00 93 1013.2
20260906080057 71 1 0.0 3.0 0.00 0.00 0.00 93 1013.5
20260906074553 72 35 0.0 4.0 0.00 0.00 0.00 92 1013.4
20260906073031 72 77 0.0 1.0 0.00 0.00 0.00 93 1013.4
20260906071529 72 73 0.0 2.0 0.00 0.00 0.00 92 1013.2
20260906070012 72 63 0.0 1.0 0.00 0.00 0.00 92 1013.3
20260906064511 72 44 0.0 3.0 0.00 0.00 0.00 91 1013.4
20260906063055 72 122 0.0 3.0 0.00 0.00 0.00 91 1013.5
20260906061601 72 319 0.0 4.0 0.00 0.00 0.00 92 1013.4
20260906060032 72 146 0.0 3.0 0.00 0.00 0.00 94 1013.2
20260906054529 72 301 0.0 2.0 0.00 0.00 0.00 94 1013.0
20260906053013 72 77 0.0 4.0 0.00 0.00 0.00 95 1012.9
20260906051506 72 294 0.0 1.0 0.00 0.00 0.00 96 1012.5
20260906050045 71 63 0.0 3.0 0.00 0.00 0.00 97 1012.5
20260906044545 71 45 0.0 0.0 0.00 0.00 0.00 97 1012.4
20260906043027 70 338 0.0 0.0 0.00 0.00 0.00 97 1012.4
20260906041537 70 32 0.0 0.0 0.00 0.00 0.00 96 1012.3
20260906040007 70 317 0.0 2.0 0.00 0.00 0.00 96 1012.2
20260906034511 70 297 0.0 3.0 0.00 0.00 0.00 95 1012.1
20260906033048 71 319 0.0 4.0 0.00 0.00 0.00 95 1012.1
20260906031547 71 333 0.0 3.0 0.00 0.00 0.00 94 1012.1
20260906030034 71 113 0.0 4.0 0.00 0.00 0.00 93 1012.0
20260906024527 72 275 1.0 4.0 0.00 0.00 0.00 92 1012.0
20260906023007 72 42 2.0 6.0 0.00 0.00 0.00 91 1012.1
20260906021506 72 20 2.0 9.0 0.00 0.00 0.00 92 1012.3
20260906020048 73 338 2.0 12.0 0.00 0.00 0.00 91 1012.3
20260906014551 73 13 2.0 5.0 0.00 0.00 0.00 91 1012.3
20260906013028 73 296 3.0 8.0 0.00 0.00 0.00 91 1012.2
20260906011526 73 319 3.0 11.0 0.00 0.00 0.00 90 1012.0
20260906010033 73 360 4.0 11.0 0.00 0.00 0.00 90 1011.6
20260906004507 74 327 5.0 11.0 0.00 0.00 0.00 90 1011.2
20260906003005 74 303 4.0 11.0 0.00 0.00 0.00 90 1011.2
20260906001503 75 293 3.0 6.0 0.00 0.00 0.00 89 1011.3
20260906000001 75 302 2.0 7.0 0.00 0.00 0.00 89 1011.1
20260905234603 75 300 4.0 9.0 0.00 0.00 0.00 87 1011.1
20260905233059 76 31 2.0 8.0 0.00 0.00 0.00 88 1011.1
20260905231558 76 347 3.0 11.0 0.00 0.00 0.00 87 1011.0
20260905230045 77 327 3.0 10.0 0.00 0.00 0.00 86 1010.7
20260905224544 77 313 3.0 14.0 0.00 0.00 0.00 87 1010.6
20260905223030 77 25 5.0 12.0 0.00 0.00 0.00 86 1010.8
20260905221518 79 343 4.0 15.0 0.00 0.00 0.00 84 1010.7
20260905220059 80 55 6.0 13.0 0.00 0.00 0.00 84 1010.6
20260905214559 80 332 5.0 12.0 0.00 0.00 0.00 83 1010.4
20260905213051 80 323 2.0 13.0 0.00 0.00 0.00 83 1010.3
20260905211545 81 339 5.0 12.0 0.00 0.00 0.00 82 1010.2
20260905210021 82 286 4.0 10.0 0.00 0.00 0.00 81 1010.2
20260905204525 83 340 4.0 12.0 0.00 0.00 0.00 80 1010.2
20260905203008 83 39 5.0 9.0 0.00 0.00 0.00 79 1010.3
20260905201507 83 29 4.0 14.0 0.00 0.00 0.00 79 1010.2
20260905200007 84 320 5.0 11.0 0.00 0.00 0.00 80 1010.1
20260905194506 84 324 5.0 11.0 0.00 0.00 0.00 78 1010.2
20260905193005 85 340 3.0 8.0 0.00 0.00 0.00 78 1010.2
20260905191506 85 302 3.0 7.0 0.00 0.00 0.00 80 1010.4
20260905190005 85 321 2.0 7.0 0.00 0.00 0.00 80 1010.4
20260905184504 85 40 2.0 10.0 0.00 0.00 0.00 78 1010.4
20260905183114 86 309 2.0 11.0 0.00 0.00 0.00 78 1010.4
20260905181558 86 77 3.0 8.0 0.00 0.00 0.00 80 1010.2
20260905180058 86 11 3.0 9.0 0.00 0.00 0.00 81 1010.2
20260905174555 87 298 3.0 7.0 0.00 0.00 0.00 81 1010.2
20260905173053 86 287 4.0 10.0 0.00 0.00 0.00 83 1010.2
20260905171554 85 294 2.0 11.0 0.00 0.00 0.00 85 1010.4
20260905164604 85 307 2.0 7.0 0.00 0.00 0.00 84 1010.6
20260905163056 85 25 2.0 6.0 0.00 0.00 0.00 85 1010.6
20260905161555 85 51 2.0 7.0 0.00 0.00 0.00 85 1010.6
20260905154535 85 308 4.0 9.0 0.00 0.00 0.00 84 1010.4
20260905153032 85 319 2.0 7.0 0.00 0.00 0.00 86 1010.3
20260905151536 84 77 1.0 7.0 0.00 0.00 0.00 87 1010.1
20260905144512 84 299 1.0 6.0 0.00 0.00 0.00 89 1009.9
20260905143003 83 324 0.0 3.0 0.00 0.00 0.00 90 1009.7
20260905141541 82 301 1.0 4.0 0.00 0.00 0.00 91 1009.8
20260905140045 81 335 1.0 5.0 0.00 0.00 0.00 92 1010.2
20260905134523 80 303 2.0 6.0 0.00 0.00 0.00 93 1010.2
20260905133013 79 295 0.0 0.0 0.00 0.00 0.00 96 1009.9
20260905131615 78 319 0.0 1.0 0.00 0.00 0.00 96 1009.7
20260905130058 78 319 0.0 1.0 0.00 0.00 0.00 97 1009.5
20260905124556 77 319 0.0 0.0 0.00 0.00 0.00 98 1009.5
20260905123103 76 319 0.0 0.0 0.00 0.00 0.00 99 1009.4
20260905121555 75 319 0.0 0.0 0.00 0.00 0.00 98 1009.3
20260905120053 74 319 0.0 0.0 0.00 0.00 0.00 98 1009.2
20260905114551 74 319 0.0 0.0 0.00 0.00 0.00 98 1009.2
20260905113053 74 319 0.0 0.0 0.00 0.00 0.00 98 1009.2
20260905111536 74 319 0.0 0.0 0.00 0.00 0.00 98 1009.1
20260905110036 74 319 0.0 0.0 0.00 0.00 0.00 98 1008.9
20260905104515 74 297 0.0 0.0 0.00 0.00 0.00 98 1008.9
20260905103014 75 297 0.0 0.0 0.00 0.00 0.00 98 1009.0